Location: L�Ave Maria
(50.7161°N, 1.5911°E)
Time: 00:06:38
(UTC+00:00)

COSMOS 2455 - Pass Details

Date: 10 July 2020
Orbit: 898 x 911 km, 67.1° (Epoch: 03 August)

Event Time Altitude Azimuth Distance (km) Brightness Sun altitude
Rises 23:45:20 0° 318° (NW) 3,553 6.8 -17.2°
Reaches altitude 10° 23:48:04 10° 310° (NW) 2,607 5.8 -17.2°
Maximum altitude 23:53:22 33° 249° (WSW) 1,494 3.8 -17.2°
Enters shadow 23:55:55 24° 207° (SSW) 1,814 3.9 -17.2°
